Location: Saint-Hippolyte
(43.6394°N, 4.7559°E)
Time: 15:20:36
(UTC+00:00)

Cosmos 1689 Rocket - Pass Details

Date: 24 October 2020
Orbit: 360 x 375 km, 97.5° (Epoch: 23 November)

Event Time Altitude Azimuth Distance (km) Brightness Sun altitude
Rises 17:09:26 0° 27° (NNE) 2,212 5.5 -5.5°
Reaches altitude 10° 17:11:41 10° 45° (NE) 1,355 4.3 -5.9°
Maximum altitude 17:13:56 20° 96° (E) 904 3.4 -6.3°
Drops below altitude 10° 17:16:09 10° 147° (SSE) 1,342 4.6 -6.7°
Sets 17:18:22 0° 165° (SSE) 2,181 5.8 -7.1°
